View from above orbital plane
|
View from above satellite
|
Ground track
|
The orbit data is extracted from the following two-line orbital elements,
1 17590U 87027B 21017.40465985 -.00000231 00000-0 -91574-4 0 9996
2 17590 71.0026 270.8377 0002870 118.9407 241.2005 14.16792907749461
Epoch (UTC): | 17 January 2021 09:42:42 |
Eccentricity: | 0.0002870 |
inclination: | 71.0026° |
perigee height: | 834 km |
apogee height: | 838 km |
right ascension of ascending node: | 270.8377° |
argument of perigee: | 118.9407° |
revolutions per day: | 14.16792907 |
mean anomaly at epoch: | 241.2005° |
orbit number at epoch: | 74946 |
The dashed part of the orbit path shows where the satellite is in the earth's shadow,
|
|